[[{"header":{"parameterUnit":"m.s-1","parameterCategory":1,"la1":30.2991,"la2":30.254,"lo1":-89.0895,"lo2":-89.0444,"dy":0.0017,"dx":0.0017,"nx":28,"ny":28,"refTime":"2025-07-11T09:00:00:Z","depth":0,"parameterNumber":2,"parameterNumberName":"U-component_of_WINDS"},"data":[0,0,0,0,0,0,0,0,0,0,0,0,0,0,0,0,0,0,0,0,0,0,0,0,0,0,0,0,0,0,0,0,0,0,0,0,0,0,0,0,0,0,0,0,0,0,0,0,0,0,0,0,0,0,0,0,0,0,2.3725,2.3727,0,2.3864,2.3866,2.3868,2.3807,2.3804,2.38,2.3797,2.3946,2.3953,2.396,0,0,0,0,0,0,0,0,0,0,0,0,0,2.3413,2.3419,2.3725,2.3727,2.3728,2.3864,2.3866,2.3868,2.3808,2.3804,2.38,2.3796,2.3944,2.3952,2.3961,0,0,0,0,0,0,0,0,0,0,0,0,0,2.355,2.3421,2.3725,2.3715,2.3715,2.3864,2.3866,2.3868,2.3809,2.3804,2.3798,2.3794,2.3941,2.3951,2.3962,2.413,0,0,2.3995,2.3999,0,0,0,0,0,0,0,0,2.3542,2.3562,2.3714,2.3716,2.3716,2.3813,2.381,2.3956,2.381,2.3773,2.3797,2.3791,2.3906,2.392,2.3957,2.4137,2.4144,2.3995,2.4002,2.4007,2.401,0,0,0,0,0,0,0,2.3533,2.3555,2.378,2.3717,2.3718,2.3705,2.3719,2.3838,2.3867,2.3776,2.3772,2.3789,2.3906,2.3947,2.396,2.4146,2.3995,2.4005,2.4011,2.4016,2.4474,2.448,0,0,0,0,0,0,2.3523,2.3548,2.3776,2.3784,2.3615,2.3715,2.373,2.3787,2.3866,2.3872,2.3793,2.3786,2.3931,2.3948,2.3965,2.417,2.4007,2.4017,2.4023,2.4468,2.4475,2.4482,0,0,0,0,0,0,2.3516,2.3544,2.377,2.3665,2.3693,2.3726,2.379,2.3793,2.3834,2.3878,2.3884,2.383,2.3928,2.395,2.409,2.4174,2.4021,2.4031,2.4462,2.4471,2.4478,2.4579,0,0,0,0,0,0,2.3507,2.3542,2.3604,2.3667,2.3699,2.3891,2.3795,2.3799,2.3852,2.3843,2.3914,2.3921,2.3925,2.4074,2.4101,2.4186,2.4039,2.4454,2.4466,2.4476,2.4568,2.459,2.4608,0,0,0,0,0,2.3497,2.3628,2.3608,2.3636,2.3778,2.3896,2.3914,2.3915,2.3858,2.3923,2.3952,2.3919,2.416,2.4089,2.4118,2.4208,2.4449,2.4462,2.4475,2.4559,2.4586,2.4608,0,0,0,0,0,0,2.3576,2.3636,2.3614,2.3769,2.3828,2.3885,2.3967,2.3943,2.402,2.4009,2.4009,2.4026,2.4171,2.4203,2.4123,2.4377,2.4296,2.4316,2.435,2.4376,2.4395,2.4386,2.4048,0,0,0,0,0,2.3612,2.3701,2.3748,2.3881,2.3911,2.3934,2.3986,2.3981,2.4043,2.4068,2.4107,2.4169,2.4259,2.4319,2.4404,2.4572,2.4588,2.4648,2.4668,2.4684,2.4702,2.4796,2.4824,2.4524,2.4524,2.4524,0,0,2.3686,2.373,2.3786,2.3898,2.3943,2.4037,2.3955,2.4058,2.4129,2.4084,2.4218,2.4249,2.4319,2.4475,2.4545,2.4506,2.4788,2.4701,2.4714,2.4723,2.4812,2.4841,2.4866,2.4533,2.4531,2.453,0,0,2.3871,2.3911,2.4027,2.4074,2.4142,2.4156,2.4184,2.4246,2.4264,2.4398,2.4367,2.4452,2.4607,2.4658,2.4705,2.491,2.4883,2.4938,2.5044,2.5135,2.5159,2.518,2.5256,2.5283,2.4955,2.4955,2.4955,0,2.3956,2.4095,2.409,2.4196,2.4248,2.4209,2.4327,2.4373,2.4467,2.4504,2.4458,2.4653,2.4697,2.4865,2.4915,2.4953,2.4987,2.4931,2.5155,2.5176,2.5196,2.5269,2.5297,2.4962,2.4961,2.496,2.496,0,2.4197,2.4294,2.438,2.447,2.453,2.4642,2.4657,2.4719,2.471,2.473,2.4869,2.492,2.5016,2.5055,2.5047,2.5223,2.5197,2.5154,2.5074,2.5231,2.5299,2.5327,2.4971,2.4968,2.4967,2.4965,0,0,2.4438,2.4523,2.4555,2.4596,2.4668,2.4745,2.4856,2.4948,2.5003,2.5068,2.5164,2.5295,2.5256,2.5309,2.5306,2.5386,2.5549,2.5333,2.5335,2.5374,2.5749,2.5783,2.5815,2.553,2.5536,2.554,2.5744,0,2.463,2.4822,2.4822,2.5001,2.5092,2.5057,2.5154,2.521,2.5232,2.5315,2.5339,2.5434,2.5373,2.5405,2.5482,2.5513,2.5625,2.5498,2.5622,2.5627,2.5608,2.585,2.5887,2.6077,2.577,2.5775,2.5778,0,2.488,2.4952,2.514,2.5201,2.5239,2.5326,2.5412,2.549,2.5554,2.5564,2.5624,2.5609,2.5725,2.564,2.5801,2.5715,2.5765,2.5788,2.5796,2.581,2.5714,2.5873,2.6137,2.6167,2.582,2.5816,2.5813,0,2.504,2.5184,2.5316,2.5352,2.5425,2.5488,2.5522,2.558,2.5636,2.5711,2.5748,2.5836,2.5885,2.5955,2.5966,2.5902,2.6129,2.6044,2.6144,2.6144,2.6195,2.6192,2.6474,2.6224,2.6223,2.6223,2.6222,0,2.5256,2.5373,2.5389,2.547,2.5601,2.56,2.573,2.5759,2.5812,2.59,2.5875,2.5958,2.5966,2.6054,2.6063,2.6197,2.6218,2.6232,2.6234,2.6236,2.6235,2.6271,2.6259,2.623,2.6229,2.6227,2.6226,0,2.5458,2.5472,2.5614,2.5671,2.5689,2.5783,2.5833,2.5912,2.5931,2.6043,2.6069,2.61,2.6201,2.6218,2.6338,2.6344,2.6505,2.6492,2.6483,2.6482,2.6582,2.6574,2.6899,2.6943,2.6662,2.6665,2.6667,0,2.5596,2.5685,2.5751,2.5808,2.5844,2.5935,2.5992,2.5995,2.6055,2.6135,2.6206,2.6303,2.6382,2.6546,2.6581,2.6673,2.6664,2.6771,2.6677,2.6678,2.6669,2.6664,2.6674,2.679,2.6793,2.6796,2.6798,0,2.5841,2.5844,2.5925,2.601,2.6078,2.6145,2.6209,2.6257,2.6269,2.6338,2.644,2.6502,2.6623,2.6722,2.6813,2.6851,2.6828,2.6826,2.6855,2.686,2.6852,2.686,2.6535,2.682,2.6818,2.6816,2.6815,2.6814,2.6017,2.6095,2.6154,2.6247,2.6294,2.6355,2.6432,2.646,2.6545,2.6643,2.6639,2.6753,2.6816,2.6936,2.698,2.707,2.7036,2.7076,2.7087,2.7098,2.7109,2.6835,2.7086,2.7086,2.7085,2.7085,2.7084,0,2.6263,2.6299,2.6383,2.6473,2.6546,2.6514,2.6584,2.6648,2.6747,2.6807,2.6885,2.7004,2.71,2.7142,2.7237,2.7301,2.7293,2.7327,2.7323,2.7333,2.7133,2.7099,2.7331,2.7331,2.7331,2.7331,2.7331,2.7331,2.6399,2.6531,2.6541,2.6697,2.6732,2.6842,2.6884,2.6941,2.6989,2.7122,2.7201,2.7226,2.728,2.7379,2.7467,2.7477,2.7514,2.7553,2.7559,2.7371,2.7347,2.7323,2.7292,2.756,2.7561,2.7752,2.7753,2.7755]},{"header":{"parameterUnit":"m.s-1","parameterCategory":1,"la1":30.2991,"la2":30.254,"lo1":-89.0895,"lo2":-89.0444,"dy":0.0017,"dx":0.0017,"nx":28,"ny":28,"refTime":"2025-07-11T09:00:00:Z","depth":0,"parameterNumber":3,"parameterNumberName":"V-component_of_WINDS"},"data":[0,0,0,0,0,0,0,0,0,0,0,0,0,0,0,0,0,0,0,0,0,0,0,0,0,0,0,0,0,0,0,0,0,0,0,0,0,0,0,0,0,0,0,0,0,0,0,0,0,0,0,0,0,0,0,0,0,0,-1.0311,-1.0312,0,-1.0381,-1.0382,-1.0383,-1.0432,-1.0433,-1.0433,-1.0433,-1.0504,-1.0505,-1.0507,0,0,0,0,0,0,0,0,0,0,0,0,0,-1.0218,-1.0219,-1.0311,-1.0312,-1.0313,-1.0381,-1.0382,-1.0383,-1.0432,-1.0433,-1.0433,-1.0434,-1.0503,-1.0505,-1.0507,0,0,0,0,0,0,0,0,0,0,0,0,0,-1.027,-1.022,-1.0311,-1.0346,-1.0349,-1.0381,-1.0382,-1.0384,-1.0432,-1.0433,-1.0433,-1.0434,-1.0503,-1.0505,-1.0507,-1.051,0,0,-1.0514,-1.0515,0,0,0,0,0,0,0,0,-1.0267,-1.0274,-1.034,-1.0343,-1.0348,-1.0399,-1.0375,-1.0426,-1.0432,-1.0401,-1.0433,-1.0434,-1.0468,-1.0473,-1.0485,-1.0513,-1.0516,-1.0514,-1.0516,-1.0517,-1.0517,0,0,0,0,0,0,0,-1.0264,-1.0271,-1.0339,-1.034,-1.0345,-1.0357,-1.0365,-1.0385,-1.043,-1.0403,-1.0407,-1.0415,-1.0471,-1.0483,-1.0487,-1.0517,-1.0514,-1.0516,-1.0518,-1.0519,-1.055,-1.055,0,0,0,0,0,0,-1.0255,-1.0268,-1.0337,-1.0341,-1.0308,-1.0358,-1.0367,-1.0382,-1.043,-1.0438,-1.0414,-1.0417,-1.0479,-1.0485,-1.049,-1.0496,-1.0517,-1.0519,-1.052,-1.0551,-1.055,-1.0549,0,0,0,0,0,0,-1.0253,-1.026,-1.0334,-1.0305,-1.0316,-1.0359,-1.0375,-1.0383,-1.0395,-1.0439,-1.0447,-1.0419,-1.048,-1.0487,-1.0505,-1.0499,-1.052,-1.0522,-1.0551,-1.055,-1.055,-1.0507,0,0,0,0,0,0,-1.025,-1.0259,-1.0261,-1.0305,-1.0317,-1.0347,-1.0375,-1.0384,-1.0399,-1.0403,-1.0445,-1.0452,-1.0481,-1.0501,-1.0507,-1.0502,-1.0524,-1.0552,-1.0551,-1.055,-1.0509,-1.0505,-1.0502,0,0,0,0,0,-1.0246,-1.0246,-1.0261,-1.0269,-1.032,-1.0347,-1.0354,-1.0387,-1.0399,-1.04,-1.0428,-1.0451,-1.0499,-1.0502,-1.0509,-1.0506,-1.0552,-1.0551,-1.055,-1.0511,-1.0506,-1.0502,0,0,0,0,0,0,-1.0199,-1.0252,-1.0269,-1.0283,-1.031,-1.0355,-1.0358,-1.038,-1.0404,-1.0407,-1.0446,-1.0455,-1.0468,-1.0489,-1.0492,-1.051,-1.0528,-1.0529,-1.0496,-1.0492,-1.0488,-1.0482,-1.0526,0,0,0,0,0,-1.0191,-1.0209,-1.0254,-1.0262,-1.0275,-1.0314,-1.0327,-1.035,-1.0379,-1.0391,-1.042,-1.0447,-1.0468,-1.0481,-1.0503,-1.0513,-1.0522,-1.0514,-1.051,-1.0506,-1.0506,-1.0512,-1.0509,-1.0545,-1.0545,-1.0546,0,0,-1.0173,-1.0204,-1.0213,-1.0253,-1.0277,-1.0294,-1.0323,-1.034,-1.0353,-1.0393,-1.0412,-1.0434,-1.0467,-1.0481,-1.0488,-1.0498,-1.0498,-1.0505,-1.0502,-1.0503,-1.051,-1.0507,-1.0504,-1.0545,-1.0545,-1.0545,0,0,-1.0149,-1.0175,-1.0184,-1.0207,-1.0243,-1.0269,-1.0271,-1.0313,-1.033,-1.0349,-1.038,-1.0396,-1.0431,-1.0453,-1.0469,-1.0454,-1.0476,-1.046,-1.0439,-1.0445,-1.0442,-1.044,-1.0434,-1.0431,-1.046,-1.046,-1.046,0,-1.0122,-1.015,-1.0186,-1.0201,-1.0218,-1.0256,-1.0265,-1.0286,-1.0327,-1.0337,-1.0348,-1.0394,-1.0419,-1.0438,-1.0434,-1.0446,-1.0449,-1.0455,-1.044,-1.0438,-1.0436,-1.0431,-1.0428,-1.0458,-1.0458,-1.0458,-1.0458,0,-1.0114,-1.0133,-1.0136,-1.0175,-1.0192,-1.0205,-1.0242,-1.0255,-1.0277,-1.0302,-1.0321,-1.0353,-1.0382,-1.0388,-1.0409,-1.041,-1.0415,-1.0432,-1.0451,-1.043,-1.0425,-1.0424,-1.0454,-1.0455,-1.0456,-1.0456,0,0,-1.0062,-1.0121,-1.0122,-1.014,-1.0182,-1.0197,-1.0211,-1.024,-1.025,-1.0277,-1.0289,-1.0319,-1.0335,-1.0353,-1.0378,-1.0383,-1.0368,-1.0399,-1.0401,-1.0392,-1.037,-1.0356,-1.0353,-1.0383,-1.0383,-1.0383,-1.0367,0,-1.0044,-1.0071,-1.0105,-1.012,-1.0138,-1.0175,-1.0187,-1.0214,-1.0238,-1.0256,-1.0282,-1.0302,-1.0323,-1.0334,-1.0341,-1.0368,-1.0364,-1.037,-1.0394,-1.0394,-1.0384,-1.0351,-1.0336,-1.032,-1.0366,-1.0365,-1.0365,0,-1.0026,-1.0052,-1.0069,-1.011,-1.0119,-1.0129,-1.0158,-1.0175,-1.0207,-1.0224,-1.0244,-1.027,-1.0287,-1.0304,-1.0326,-1.033,-1.0342,-1.0357,-1.0357,-1.036,-1.0378,-1.0352,-1.0316,-1.0313,-1.0363,-1.0363,-1.0363,0,-0.9985,-1.0024,-1.004,-1.0054,-1.0102,-1.0109,-1.0129,-1.0161,-1.0176,-1.0202,-1.0212,-1.0239,-1.0253,-1.0273,-1.0305,-1.0315,-1.0324,-1.0344,-1.0338,-1.0337,-1.0337,-1.0337,-1.0301,-1.0347,-1.0347,-1.0347,-1.0347,0,-0.9961,-0.997,-1.0022,-1.0031,-1.0042,-1.0081,-1.0091,-1.0114,-1.0143,-1.0157,-1.0191,-1.0203,-1.0246,-1.0264,-1.0289,-1.0304,-1.031,-1.0324,-1.033,-1.032,-1.0318,-1.0328,-1.0329,-1.0346,-1.0346,-1.0346,-1.0346,0,-0.9916,-0.9952,-0.9971,-1.0015,-1.0027,-1.0033,-1.0071,-1.0081,-1.0108,-1.0125,-1.0132,-1.0172,-1.0195,-1.023,-1.0263,-1.028,-1.029,-1.0301,-1.0279,-1.0283,-1.0274,-1.0274,-1.0243,-1.0241,-1.0288,-1.0287,-1.0287,0,-0.9898,-0.9906,-0.9951,-0.9964,-0.9983,-1.0002,-1.0018,-1.0057,-1.0071,-1.0108,-1.0114,-1.0139,-1.0161,-1.0195,-1.0228,-1.0253,-1.0265,-1.0252,-1.0268,-1.0258,-1.0263,-1.0262,-1.0263,-1.0248,-1.0247,-1.0246,-1.0246,0,-0.9861,-0.9879,-0.99,-0.9928,-0.9946,-0.997,-0.9995,-1.0003,-1.0047,-1.0062,-1.0086,-1.0103,-1.0137,-1.0161,-1.0191,-1.0212,-1.0235,-1.0241,-1.024,-1.023,-1.0216,-1.0222,-1.0267,-1.0241,-1.0241,-1.0242,-1.0242,-1.0242,-0.9829,-0.9838,-0.9871,-0.9894,-0.9917,-0.994,-0.9952,-0.998,-1.0001,-1.0031,-1.0053,-1.0075,-1.0107,-1.0149,-1.0169,-1.0186,-1.0197,-1.0196,-1.0196,-1.0195,-1.0191,-1.0214,-1.0192,-1.0192,-1.0192,-1.0192,-1.0193,0,-0.9793,-0.9817,-0.9838,-0.9872,-0.989,-0.9913,-0.9942,-0.9955,-0.9975,-1.0002,-1.0024,-1.0051,-1.0075,-1.0109,-1.0136,-1.0143,-1.0155,-1.0149,-1.0148,-1.0152,-1.0181,-1.0178,-1.0139,-1.0139,-1.0139,-1.0139,-1.0139,-1.0139,-0.9777,-0.9792,-0.9814,-0.9841,-0.9865,-0.9887,-0.9902,-0.9923,-0.9945,-0.9974,-0.9994,-1.0017,-1.0047,-1.0076,-1.0099,-1.0109,-1.0116,-1.0107,-1.0119,-1.0145,-1.015,-1.0155,-1.0152,-1.0108,-1.0108,-1.0089,-1.0089,-1.0089]}]]